* Astronomy

Members Login
Post Info TOPIC: CZ-2D Rocket body re-entry


L

Posts: 131433
Date:
CZ-2D Rocket body re-entry
Permalink  
 


A CZ-2D Rocket body that was launched on the 18th December, 2012, from the Jiuquan Satellite Launch Centre, for the Gokturk-2 satellite mission is predicted to re-enter the Earths atmosphere on the 31st December, 2012 @ 07:00 GMT ħ 24 hours.

CZ-2D RB
1 39031U 12073B   12364.23449027  .04254446  22062-5  15972-3 0   440
2 39031 096.5459 254.7902 0152589 315.9827 042.8964 16.15230298  1630

Period:       90 minutes
Inclination: 96.55° 
Apogee:     413 km
Perigee:     136 km
Revolution Number:    196
Predicted  Location:    12.2°N, 126.3°W



__________________
Page 1 of 1  sorted by
 
Quick Reply

Please log in to post quick replies.



Create your own FREE Forum
Report Abuse
Powered by ActiveBoard